[[{"header":{"parameterUnit":"m.s-1","parameterCategory":1,"la1":30.2991,"la2":30.254,"lo1":-89.0895,"lo2":-89.0444,"dy":0.0017,"dx":0.0017,"nx":28,"ny":28,"refTime":"2024-02-15T03:00:00:Z","depth":0,"parameterNumber":2,"parameterNumberName":"U-component_of_WINDS"},"data":[0,0,0,0,0,0,0,0,0,0,0,0,0,0,0,0,0,0,0,0,0,0,0,0,0,0,0,0,0,0,0,0,0,0,0,0,0,0,0,0,0,0,0,0,0,0,0,0,0,0,0,0,0,0,0,0,0,0,0.1547,0.1547,0,0.1624,0.1625,0.1626,0.166,0.166,0.1659,0.1659,0.1739,0.1742,0.1744,0,0,0,0,0,0,0,0,0,0,0,0,0,0.1427,0.1429,0.1546,0.1547,0.1548,0.1624,0.1625,0.1626,0.166,0.166,0.1659,0.1659,0.1739,0.1741,0.1744,0,0,0,0,0,0,0,0,0,0,0,0,0,0.1489,0.1429,0.1546,0.1574,0.1577,0.1624,0.1625,0.1627,0.166,0.166,0.1659,0.1659,0.1738,0.1741,0.1744,0.1769,0,0,0.1755,0.1756,0,0,0,0,0,0,0,0,0.1485,0.1493,0.1569,0.1572,0.1576,0.1632,0.1612,0.1674,0.166,0.1629,0.1659,0.1659,0.1704,0.171,0.1725,0.1773,0.1776,0.1755,0.1757,0.1758,0.1759,0,0,0,0,0,0,0,0.1481,0.149,0.1577,0.157,0.1574,0.1583,0.1591,0.1624,0.1666,0.1631,0.1634,0.1643,0.1706,0.1722,0.1727,0.1777,0.1755,0.1758,0.176,0.1761,0.1849,0.1849,0,0,0,0,0,0,0.1472,0.1486,0.1575,0.158,0.1529,0.1585,0.1595,0.1614,0.1666,0.1674,0.1643,0.1644,0.1716,0.1723,0.173,0.1762,0.1758,0.1762,0.1763,0.1848,0.1849,0.1849,0,0,0,0,0,0,0.1469,0.148,0.1572,0.1534,0.1546,0.1587,0.1609,0.1616,0.1632,0.1675,0.1682,0.1651,0.1716,0.1725,0.1759,0.1765,0.1763,0.1766,0.1848,0.1849,0.1849,0.1826,0,0,0,0,0,0,0.1466,0.1478,0.1488,0.1534,0.1548,0.1599,0.1609,0.1618,0.1638,0.164,0.1685,0.1692,0.1717,0.1754,0.1762,0.177,0.1769,0.1848,0.1848,0.1849,0.1827,0.1826,0.1825,0,0,0,0,0,0.1461,0.1479,0.1489,0.1499,0.1561,0.1599,0.1608,0.1636,0.1638,0.1648,0.1676,0.1691,0.1763,0.1757,0.1767,0.1776,0.1847,0.1848,0.1849,0.1827,0.1826,0.1825,0,0,0,0,0,0,0.1433,0.1485,0.1497,0.1529,0.156,0.1605,0.1619,0.1634,0.1664,0.1665,0.1698,0.1708,0.1739,0.1761,0.1753,0.1802,0.1807,0.1809,0.1787,0.1786,0.1786,0.178,0.1772,0,0,0,0,0,0.1431,0.1458,0.1502,0.1526,0.1541,0.1577,0.1595,0.1614,0.1647,0.166,0.1689,0.1721,0.1751,0.177,0.1799,0.183,0.184,0.1841,0.184,0.184,0.1841,0.1859,0.186,0.1851,0.1851,0.1851,0,0,0.1426,0.1458,0.1473,0.1522,0.1547,0.1574,0.1588,0.1616,0.1636,0.1664,0.1697,0.172,0.1757,0.1789,0.1805,0.1809,0.1846,0.184,0.1839,0.1842,0.186,0.1861,0.1861,0.1852,0.1852,0.1852,0,0,0.1432,0.1458,0.1482,0.1507,0.1546,0.157,0.1575,0.1618,0.1635,0.1669,0.169,0.1715,0.1765,0.1791,0.181,0.1825,0.184,0.1834,0.183,0.1847,0.1848,0.1849,0.1854,0.1855,0.1836,0.1836,0.1836,0,0.1421,0.1463,0.1492,0.1519,0.1539,0.1566,0.1589,0.1613,0.1659,0.1673,0.1676,0.174,0.1767,0.1805,0.1809,0.1824,0.1831,0.1829,0.1845,0.1846,0.1848,0.1853,0.1855,0.1835,0.1835,0.1835,0.1835,0,0.1448,0.1476,0.149,0.1534,0.1557,0.1582,0.1615,0.1634,0.165,0.1674,0.1708,0.1741,0.1778,0.1789,0.1805,0.1829,0.183,0.1839,0.1844,0.1847,0.1853,0.1855,0.1833,0.1833,0.1834,0.1834,0,0,0.1438,0.1497,0.1502,0.1522,0.1567,0.1589,0.1615,0.1651,0.1667,0.1698,0.1721,0.1763,0.1771,0.1793,0.1813,0.1828,0.1837,0.1835,0.1836,0.1834,0.1866,0.1859,0.1861,0.1847,0.1848,0.1848,0.1863,0,0.1449,0.1497,0.1524,0.1561,0.1588,0.1613,0.1636,0.1665,0.1688,0.1714,0.1739,0.1768,0.1777,0.179,0.1806,0.1833,0.1844,0.1832,0.1869,0.187,0.1859,0.1864,0.1857,0.1869,0.1865,0.1865,0.1866,0,0.1469,0.1499,0.1539,0.158,0.1592,0.1612,0.1647,0.1672,0.1706,0.1721,0.1746,0.1765,0.1794,0.1797,0.1837,0.1828,0.1844,0.186,0.1861,0.1866,0.1868,0.1869,0.1873,0.1875,0.1869,0.1869,0.1869,0,0.1458,0.1509,0.1539,0.1555,0.1604,0.1618,0.1639,0.1672,0.1692,0.1723,0.1736,0.177,0.1788,0.1813,0.1842,0.1841,0.1879,0.1884,0.1892,0.1891,0.1899,0.1898,0.1907,0.191,0.191,0.1909,0.1909,0,0.1468,0.1491,0.1535,0.1553,0.158,0.161,0.1636,0.1659,0.1689,0.1712,0.1736,0.1757,0.1793,0.1819,0.1841,0.1871,0.1879,0.1892,0.1898,0.189,0.1888,0.1902,0.1902,0.191,0.191,0.191,0.191,0,0.146,0.149,0.1525,0.1568,0.1579,0.1597,0.1634,0.1653,0.1676,0.1706,0.1714,0.1751,0.1783,0.1814,0.1856,0.1871,0.1901,0.1908,0.1889,0.1892,0.1899,0.1898,0.1916,0.192,0.192,0.192,0.192,0,0.1464,0.1483,0.1528,0.1545,0.1566,0.1593,0.1614,0.1644,0.1665,0.1705,0.1719,0.1752,0.178,0.183,0.1861,0.1893,0.1902,0.1906,0.1907,0.1898,0.1902,0.19,0.1902,0.1905,0.1905,0.1905,0.1905,0,0.1469,0.1483,0.1511,0.1545,0.1568,0.1596,0.1625,0.1638,0.1674,0.1695,0.1728,0.175,0.1793,0.1826,0.1862,0.1884,0.19,0.1904,0.1908,0.19,0.1889,0.1895,0.1887,0.1904,0.1904,0.1904,0.1904,0.1904,0.1468,0.1485,0.152,0.155,0.1575,0.1601,0.1621,0.1647,0.1675,0.1712,0.1729,0.1762,0.1795,0.1845,0.1867,0.1893,0.1897,0.1902,0.1904,0.1904,0.1903,0.1884,0.19,0.19,0.19,0.19,0.19,0,0.1474,0.1497,0.1525,0.1564,0.1588,0.1601,0.1634,0.1653,0.1682,0.1711,0.1739,0.1776,0.1808,0.1841,0.1875,0.189,0.1898,0.1897,0.1897,0.1901,0.1897,0.1891,0.189,0.189,0.189,0.189,0.189,0.189,0.148,0.151,0.1528,0.157,0.1594,0.1626,0.1643,0.1668,0.1691,0.1732,0.1759,0.178,0.1811,0.1847,0.1877,0.1886,0.1897,0.1895,0.1906,0.1901,0.1902,0.1902,0.1896,0.1897,0.1897,0.1908,0.1908,0.1908]},{"header":{"parameterUnit":"m.s-1","parameterCategory":1,"la1":30.2991,"la2":30.254,"lo1":-89.0895,"lo2":-89.0444,"dy":0.0017,"dx":0.0017,"nx":28,"ny":28,"refTime":"2024-02-15T03:00:00:Z","depth":0,"parameterNumber":3,"parameterNumberName":"V-component_of_WINDS"},"data":[0,0,0,0,0,0,0,0,0,0,0,0,0,0,0,0,0,0,0,0,0,0,0,0,0,0,0,0,0,0,0,0,0,0,0,0,0,0,0,0,0,0,0,0,0,0,0,0,0,0,0,0,0,0,0,0,0,0,0.607,0.607,0,0.6081,0.6081,0.6082,0.6085,0.6085,0.6085,0.6085,0.6098,0.6098,0.6098,0,0,0,0,0,0,0,0,0,0,0,0,0,0.6053,0.6053,0.607,0.607,0.607,0.6081,0.6081,0.6082,0.6085,0.6085,0.6085,0.6085,0.6098,0.6098,0.6098,0,0,0,0,0,0,0,0,0,0,0,0,0,0.6062,0.6053,0.607,0.6074,0.6074,0.6081,0.6081,0.6082,0.6085,0.6085,0.6085,0.6085,0.6097,0.6098,0.6098,0.6104,0,0,0.61,0.61,0,0,0,0,0,0,0,0,0.6061,0.6062,0.6073,0.6073,0.6074,0.6082,0.608,0.6089,0.6085,0.6081,0.6085,0.6085,0.6092,0.6093,0.6096,0.6104,0.6105,0.61,0.6101,0.6101,0.6101,0,0,0,0,0,0,0,0.606,0.6062,0.6075,0.6073,0.6074,0.6075,0.6076,0.6082,0.6087,0.6081,0.6082,0.6083,0.6093,0.6095,0.6096,0.6105,0.61,0.6101,0.6101,0.6101,0.6117,0.6117,0,0,0,0,0,0,0.6059,0.6061,0.6074,0.6075,0.6067,0.6075,0.6076,0.6079,0.6087,0.6088,0.6083,0.6083,0.6094,0.6095,0.6097,0.6103,0.6101,0.6101,0.6102,0.6117,0.6117,0.6117,0,0,0,0,0,0,0.6059,0.606,0.6074,0.6068,0.607,0.6075,0.6079,0.608,0.6082,0.6088,0.6089,0.6084,0.6094,0.6096,0.6102,0.6103,0.6102,0.6102,0.6117,0.6117,0.6117,0.6115,0,0,0,0,0,0,0.6058,0.606,0.6062,0.6068,0.607,0.6078,0.6079,0.608,0.6083,0.6083,0.609,0.6091,0.6094,0.6101,0.6102,0.6104,0.6103,0.6117,0.6117,0.6117,0.6115,0.6115,0.6115,0,0,0,0,0,0.6058,0.6061,0.6062,0.6064,0.6073,0.6079,0.608,0.6083,0.6083,0.6085,0.6089,0.6091,0.6103,0.6101,0.6103,0.6105,0.6117,0.6117,0.6117,0.6115,0.6115,0.6115,0,0,0,0,0,0,0.6056,0.6062,0.6063,0.6069,0.6073,0.6079,0.6082,0.6083,0.6088,0.6088,0.6092,0.6094,0.6099,0.6103,0.6101,0.611,0.611,0.611,0.6107,0.6108,0.6108,0.6107,0.6103,0,0,0,0,0,0.6056,0.606,0.6065,0.607,0.6072,0.6076,0.6079,0.6081,0.6086,0.6088,0.6092,0.6097,0.6102,0.6105,0.611,0.6115,0.6117,0.6117,0.6117,0.6117,0.6118,0.6121,0.6121,0.6118,0.6118,0.6118,0,0,0.6057,0.6061,0.6063,0.607,0.6073,0.6077,0.6078,0.6082,0.6085,0.6089,0.6094,0.6098,0.6103,0.6109,0.6111,0.6112,0.6119,0.6118,0.6118,0.6118,0.6121,0.6121,0.6121,0.6118,0.6118,0.6118,0,0,0.606,0.6063,0.6067,0.607,0.6075,0.6078,0.6079,0.6085,0.6087,0.6092,0.6095,0.6098,0.6107,0.611,0.6113,0.6117,0.6119,0.6118,0.6119,0.6121,0.6121,0.6122,0.6123,0.6123,0.6119,0.6119,0.6119,0,0.606,0.6066,0.6069,0.6073,0.6076,0.6078,0.6082,0.6085,0.6092,0.6094,0.6094,0.6104,0.6108,0.6114,0.6114,0.6117,0.6118,0.6118,0.6121,0.6121,0.6122,0.6123,0.6123,0.6118,0.6118,0.6119,0.6119,0,0.6066,0.607,0.6073,0.6078,0.6081,0.6085,0.6089,0.6091,0.6093,0.6096,0.6101,0.6106,0.6111,0.6113,0.6115,0.6119,0.6119,0.612,0.612,0.6122,0.6123,0.6123,0.6118,0.6118,0.6118,0.6118,0,0,0.6069,0.6075,0.6076,0.6078,0.6084,0.6087,0.6091,0.6096,0.6098,0.6102,0.6106,0.6112,0.6112,0.6116,0.6118,0.612,0.6122,0.6121,0.6121,0.6121,0.6127,0.6126,0.6127,0.6123,0.6124,0.6124,0.6126,0,0.6073,0.608,0.6082,0.6088,0.6091,0.6093,0.6097,0.61,0.6103,0.6106,0.6109,0.6114,0.6114,0.6116,0.6118,0.6122,0.6124,0.6122,0.6127,0.6127,0.6125,0.6127,0.6127,0.6129,0.6127,0.6127,0.6127,0,0.6078,0.6082,0.6088,0.6092,0.6093,0.6096,0.6101,0.6104,0.6108,0.611,0.6113,0.6115,0.6119,0.6118,0.6124,0.6123,0.6125,0.6127,0.6127,0.6128,0.6127,0.6128,0.613,0.6131,0.6128,0.6128,0.6128,0,0.608,0.6086,0.609,0.6092,0.6097,0.6099,0.6101,0.6105,0.6107,0.6111,0.6113,0.6117,0.612,0.6123,0.6126,0.6125,0.6131,0.6131,0.6133,0.6133,0.6134,0.6134,0.6137,0.6135,0.6135,0.6135,0.6135,0,0.6084,0.6087,0.6091,0.6093,0.6097,0.61,0.6103,0.6106,0.6109,0.6112,0.6114,0.6117,0.6121,0.6124,0.6127,0.6131,0.6132,0.6133,0.6134,0.6133,0.6133,0.6135,0.6135,0.6136,0.6136,0.6135,0.6135,0,0.6086,0.6088,0.6093,0.6097,0.6098,0.6101,0.6104,0.6107,0.6109,0.6113,0.6114,0.6118,0.6122,0.6125,0.613,0.6132,0.6136,0.6137,0.6135,0.6135,0.6136,0.6136,0.614,0.6141,0.6139,0.6139,0.6139,0,0.6088,0.6091,0.6095,0.6097,0.6099,0.6102,0.6104,0.6107,0.6109,0.6114,0.6116,0.6119,0.6123,0.6129,0.6132,0.6136,0.6137,0.6138,0.6138,0.6137,0.6137,0.6137,0.6137,0.6138,0.6138,0.6138,0.6138,0,0.6092,0.6093,0.6096,0.61,0.6102,0.6105,0.6108,0.6109,0.6112,0.6115,0.6119,0.6121,0.6126,0.613,0.6134,0.6136,0.6138,0.6138,0.6139,0.6138,0.6137,0.6137,0.6135,0.6138,0.6138,0.6138,0.6138,0.6138,0.6095,0.6097,0.61,0.6103,0.6105,0.6108,0.611,0.6112,0.6115,0.6119,0.6121,0.6124,0.6128,0.6133,0.6136,0.6139,0.6139,0.614,0.614,0.614,0.614,0.6136,0.6139,0.6139,0.6139,0.6139,0.6139,0,0.6099,0.61,0.6103,0.6107,0.6109,0.611,0.6113,0.6115,0.6118,0.6121,0.6124,0.6128,0.6131,0.6134,0.6138,0.614,0.614,0.6141,0.6141,0.6141,0.6139,0.6139,0.614,0.614,0.614,0.614,0.614,0.614,0.6101,0.6105,0.6106,0.611,0.6112,0.6115,0.6117,0.6119,0.6121,0.6125,0.6128,0.613,0.6133,0.6136,0.614,0.614,0.6142,0.6142,0.6143,0.6141,0.6141,0.6141,0.614,0.6142,0.6142,0.6144,0.6144,0.6144]}]]